Regional Weather Roundup
Issued by NWS Newport/Morehead, NC

Current Version | Previous Version | Text Only | Print | Product List | Glossary Off
Versions: 1 2 3 4 5 6 7 8 9 10 11 12 13 14 15 16 17 18 19 20 21 22 23 24 25 26 27 28 29 30 31 32 33 34 35 36 37 38 39 40 41 42 43 44 45 46 47 48 49 50
000 ASUS42 KMHX 280810 RWRMHX WEATHER ROUNDUP FOR EASTERN NORTH CAROLINA NATIONAL WEATHER SERVICE NEWPORT/MOREHEAD CITY NC 400 AM EDT THU AUG 28 2014 NOTE: "FAIR" INDICATES FEW OR NO CLOUDS BELOW 12,000 FEET WITH NO SIGNIFICANT WEATHER AND/OR OBSTRUCTIONS TO VISIBILITY NCZ015>017-031-032-045>047-102-103-280900- NORTH COAST CITY SKY/WX TMP DP RH WIND PRES REMARKS EDENTON CLEAR 71 65 83 W5 29.92S ELIZABETH CITY CLEAR 69 64 84 W8 29.90F KITTY HAWK SUNNY 74 70 86 W5 29.89S MANTEO CLEAR 72 69 91 W7 29.91R $$ NCZ045>047-081-094-103-104-280900- CENTRAL COAST CITY SKY/WX TMP DP RH WIND PRES REMARKS FRISCO CLEAR 73 70 90 W7 29.92 SWANQUARTER N/A 72 N/A N/A NW5 29.88S $$ NCZ095-097-098-100-101-280900- SOUTHERN COAST CITY SKY/WX TMP DP RH WIND PRES REMARKS BEAUFORT CLEAR 71 65 81 W3 29.94S CEDAR ISLAND N/A 73 N/A N/A SW5G10 29.97S JACKSONVILLE CLEAR 66 60 81 W3 29.95S NEWPORT NOT AVBL PINEY ISLAND SUNNY 74 69 85 W8 29.93S WILMINGTON CLEAR 66 64 93 CALM 29.96S $$ NCZ011>013-027>030-043-044-078>080-089-090>093-098-280900- COASTAL PLAIN CITY SKY/WX TMP DP RH WIND PRES REMARKS AHOSKIE CLEAR 64 61 93 CALM 29.93R CLINTON CLEAR 62 62 99 CALM 29.97S ELIZABETHTOWN CLEAR 65 59 80 W3 29.98R GOLDSBORO CLEAR 66 65 98 W6 29.94R GREENVILLE CLEAR 68 63 83 CALM 29.96S HAVELOCK CLEAR 66 63 90 SW5 29.95S KENANSVILLE CLEAR 61 59 94 CALM 29.97S KINSTON CLEAR 65 61 85 W5 29.95S NEW BERN CLEAR 68 62 81 CALM 29.95S RICHLANDS CLEAR 61 55 82 CALM 29.96S ROANOKE RAPIDS NOT AVBL ROCKY MOUNT PTCLDY 65 62 90 CALM 29.95R WASHINGTON CLEAR 66 62 85 CALM 29.94R WHITEVILLE CLEAR 65 61 87 CALM 29.97F $$ AMZ130-135-150-152-154-156-158-170-250-252-270-ANZ085-086-088-633-658-670-280900- MARINE OBSERVATIONS STATION/POSITION TIME TEMP WIND PRES WAVE SWELL AIR SEA DIR/SP/G HT/PER HT/PER (UTC) (F) (DEG/KT/KT) (MB) (FT/S) (FT/S) CHESAPEAKE LIGHT 0700 76 260/ 10/ 11 1012.6 BUOY 44014 0800 75 74 290/ 10/ 12 1011.2 6/12 7/12 DUCK 0800 74 76 260/ 10/ 12 1011.7 2E DUCK 0800 N/A 4/13 3/13 OREGON INLET 0800 73 78 270/ 7/ 12 1012.4 BUOY 44095 0800 76 N/A 5/10 3/12 20E OREGON INLET NOT AVBL HATTERAS CG 0800 76 79 290/ 11/ 13 1013.5 DIAMOND BUOY 0800 76 290/ 14/ 17 1012.6 6/10 5/10 CAPE LOOKOUT 0700 75 270/ 5/ 5 1013.4 BEAUFORT LAB 0800 72 79 320/ 2/ 4 1013.1 30 SE NEW RIVER 0800 79 80 310/ 8/ 8 1014.3 4/10 5/10 5 SE WRIGHTSVILL 0800 74 81 290/ 8/ 10 N/A BUOY 41002 0708 80 81 310/ 8/ 12 1014.7 9/ 8 8/ 8 BUOY 41004 0800 80 82 250/ 8/ 10 1014.9 5/11 5/11 $$

USA.gov is the U.S. government's official web portal to all federal, state and local government web resources and services.